User: anonymous   Login
Location: Unspecified
(0.0000°N, 0.0000°E)
Time: 18:57:06
(UTC+00:00)
Language:

Delta IV Demo - Orbit

View from above orbital plane
View from above orbital plane
View from above satellite
View from above satellite

Ground track
Ground track

The orbit data is extracted from the following two-line orbital elements,

1 28500U 04050A   21136.66575424 -.00000131  00000-0  00000-0 0  9992
2 28500  16.5156 356.1563 2772974 264.4872  56.4979  1.41309593 84637
Epoch (UTC): 16 May 2021 15:58:41
Eccentricity: 0.2772974
inclination: 16.5156°
perigee height: 17864 km
apogee height: 36468 km
right ascension of ascending node: 356.1563°
argument of perigee: 264.4872°
revolutions per day: 1.41309593
mean anomaly at epoch: 56.4979°
orbit number at epoch: 8463

The dashed part of the orbit path shows where the satellite is in the earth's shadow,  

DLR